LKMT Weather Reports


Display with metric or nautical units.
time (UTC)temp
F
wind
direction
speed
MPH
gust
MPH
rain 1hr
in
rain 24hr
in
rain mn
in
humidity
%
barometer
mb
20260505172228 75 190 12.0 0.0 0.00 0.00 0.00 31
20260505170233 75 190 12.0 0.0 0.00 0.00 0.00 33 1006.0
20260505163245 75 190 16.0 0.0 0.00 0.00 0.00 33 1006.0
20260505162343 77 200 16.0 0.0 0.00 0.00 0.00 25
20260505160234 77 200 14.0 0.0 0.00 0.00 0.00 25 1006.0
20260505153238 79 190 18.0 0.0 0.00 0.00 0.00 15 1006.0
20260505152211 79 200 18.0 29.0 0.00 0.00 0.00 15
20260505150240 79 190 17.0 29.0 0.00 0.00 0.00 16 1006.0
20260505140604 81 210 24.0 36.0 0.00 0.00 0.00 15 1007.0
20260505140240 79 210 21.0 0.0 0.00 0.00 0.00 18 1007.0
20260505130234 79 200 22.0 0.0 0.00 0.00 0.00 19 1007.0
20260505123231 77 210 21.0 0.0 0.00 0.00 0.00 19 1007.0
20260505122157 77 210 24.0 36.0 0.00 0.00 0.00 19
20260505120226 77 210 24.0 36.0 0.00 0.00 0.00 19 1008.0
20260505113230 77 200 12.0 0.0 0.00 0.00 0.00 20 1008.0
20260505112158 75 180 14.0 0.0 0.00 0.00 0.00 17
20260505110244 75 180 13.0 0.0 0.00 0.00 0.00 19 1008.0
20260505102158 75 200 12.0 0.0 0.00 0.00 0.00 19
20260505100234 73 200 14.0 0.0 0.00 0.00 0.00 23 1009.0
20260505093231 75 200 16.0 0.0 0.00 0.00 0.00 23 1009.0
20260505092156 73 200 14.0 0.0 0.00 0.00 0.00 23
20260505090233 73 200 14.0 0.0 0.00 0.00 0.00 27 1009.0
20260505083231 73 190 15.0 0.0 0.00 0.00 0.00 25 1009.0
20260505082157 73 190 14.0 0.0 0.00 0.00 0.00 27
20260505080238 73 190 14.0 0.0 0.00 0.00 0.00 27 1009.0
20260505073231 72 200 7.0 0.0 0.00 0.00 0.00 33 1009.0
20260505072157 66 0 2.0 0.0 0.00 0.00 0.00 45
20260505070239 64 310 3.0 0.0 0.00 0.00 0.00 48 1010.0
20260505063230 63 0 2.0 0.0 0.00 0.00 0.00 51 1010.0
20260505062158 57 0 2.0 0.0 0.00 0.00 0.00 58
20260505060233 57 0 1.0 0.0 0.00 0.00 0.00 67 1010.0
20260505053219 54 0 1.0 0.0 0.00 0.00 0.00 66 1010.0
20260505052155 52 0 2.0 0.0 0.00 0.00 0.00 71
20260505050238 50 0 1.0 0.0 0.00 0.00 0.00 76 1010.0
20260505040233 45 0 2.0 0.0 0.00 0.00 0.00 81 1010.0
20260505033223 45 0 0.0 0.0 0.00 0.00 0.00 93 1011.0
20260505032156 45 0 0.0 0.0 0.00 0.00 0.00 93
20260505030233 45 0 1.0 0.0 0.00 0.00 0.00 93 1011.0
20260505023224 45 70 5.0 0.0 0.00 0.00 0.00 75 1011.0
20260505022155 48 70 5.0 0.0 0.00 0.00 0.00 66
20260505020231 45 70 3.0 0.0 0.00 0.00 0.00 75 1011.0
20260505013224 48 0 1.0 0.0 0.00 0.00 0.00 66 1012.0
20260505012157 50 0 2.0 0.0 0.00 0.00 0.00 61
20260505010232 50 0 1.0 0.0 0.00 0.00 0.00 61 1012.0
20260505003224 50 0 1.0 0.0 0.00 0.00 0.00 66 1012.0
20260505002156 52 0 2.0 0.0 0.00 0.00 0.00 57
20260505000233 50 0 1.0 0.0 0.00 0.00 0.00 66 1012.0
20260504233224 52 0 1.0 0.0 0.00 0.00 0.00 62 1012.0
20260504232228 50 0 0.0 0.0 0.00 0.00 0.00 66
20260504230240 50 0 0.0 0.0 0.00 0.00 0.00 61 1013.0
20260504223230 54 0 1.0 0.0 0.00 0.00 0.00 58 1013.0
20260504222156 55 0 2.0 0.0 0.00 0.00 0.00 50
20260504220240 55 0 2.0 0.0 0.00 0.00 0.00 50 1013.0
20260504213224 52 70 3.0 0.0 0.00 0.00 0.00 57 1013.0
20260504212156 59 80 2.0 0.0 0.00 0.00 0.00 38
20260504210235 59 0 2.0 0.0 0.00 0.00 0.00 41 1013.0
20260504203223 59 210 6.0 0.0 0.00 0.00 0.00 38 1013.0
20260504202155 61 210 5.0 0.0 0.00 0.00 0.00 36
20260504200234 61 200 5.0 0.0 0.00 0.00 0.00 33 1013.0
20260504193224 63 200 5.0 0.0 0.00 0.00 0.00 31 1013.0
20260504192157 68 200 5.0 0.0 0.00 0.00 0.00 22
20260504190241 68 190 5.0 0.0 0.00 0.00 0.00 24 1013.0
20260504183231 68 210 12.0 0.0 0.00 0.00 0.00 26 1013.0
20260504182158 70 200 9.0 0.0 0.00 0.00 0.00 22
20260504180233 70 200 9.0 0.0 0.00 0.00 0.00 24 1013.0
20260504173231 72 200 10.0 0.0 0.00 0.00 0.00 23 1012.0